FW4002 Weather Reports


Display with metric or nautical units.
time (UTC)temp
F
wind
direction
speed
MPH
gust
MPH
rain 1hr
in
rain 24hr
in
rain mn
in
humidity
%
barometer
mb
20260508205403 57 243 3.0 9.0 0.01 0.07 0.06 85 1009.8
20260508204503 57 226 4.0 12.0 0.01 0.07 0.06 84 1009.8
20260508203603 57 231 4.0 11.0 0.01 0.07 0.06 83 1009.8
20260508202704 58 219 6.0 14.0 0.01 0.07 0.06 80 1009.7
20260508201824 58 214 6.0 16.0 0.00 0.06 0.05 78 1009.9
20260508200903 59 211 4.0 11.0 0.00 0.06 0.05 77 1010.0
20260508200004 59 188 2.0 7.0 0.00 0.06 0.05 75 1009.9
20260508195403 58 160 1.0 4.0 0.00 0.06 0.05 76 1009.9
20260508194503 58 72 1.0 3.0 0.00 0.06 0.05 78 1009.8
20260508193603 58 13 1.0 4.0 0.00 0.06 0.05 77 1010.0
20260508192704 58 35 2.0 4.0 0.00 0.06 0.05 77 1010.1
20260508191824 58 48 1.0 4.0 0.00 0.06 0.05 76 1010.1
20260508190903 58 72 1.0 4.0 0.00 0.06 0.05 75 1010.3
20260508190003 57 70 1.0 3.0 0.00 0.06 0.05 76 1010.5
20260508185424 57 78 1.0 4.0 0.00 0.06 0.05 77 1010.6
20260508184504 57 60 1.0 4.0 0.00 0.06 0.05 79 1010.8
20260508183603 57 36 1.0 3.0 0.00 0.06 0.05 79 1010.8
20260508182703 57 328 0.0 2.0 0.00 0.06 0.05 78 1010.9
20260508181803 56 0 0.0 0.0 0.00 0.06 0.05 79 1011.0
20260508180903 56 264 0.0 1.0 0.00 0.06 0.05 79 1011.2
20260508180003 56 264 0.0 2.0 0.00 0.06 0.05 78 1011.3
20260508175403 56 264 0.0 2.0 0.00 0.06 0.05 80 1011.4
20260508174503 55 268 0.0 2.0 0.00 0.06 0.05 80 1011.6
20260508173603 55 242 0.0 2.0 0.00 0.06 0.05 81 1011.8
20260508172703 55 270 0.0 3.0 0.00 0.06 0.05 80 1012.1
20260508171803 55 222 0.0 3.0 0.00 0.06 0.05 80 1012.1
20260508170903 56 244 2.0 6.0 0.00 0.06 0.05 78 1012.1
20260508170003 56 218 4.0 11.0 0.00 0.06 0.05 77 1012.2
20260508165403 56 215 6.0 12.0 0.00 0.06 0.05 78 1012.1
20260508164503 55 209 4.0 11.0 0.00 0.06 0.05 82 1012.1
20260508163603 54 217 3.0 8.0 0.01 0.06 0.05 88 1012.3
20260508162703 53 222 3.0 8.0 0.02 0.06 0.05 89 1012.5
20260508161826 51 223 2.0 12.0 0.03 0.06 0.05 90 1012.8
20260508160924 50 209 2.0 9.0 0.04 0.06 0.05 90 1012.9
20260508160004 50 220 2.0 6.0 0.04 0.06 0.05 90 1013.0
20260508155403 50 216 2.0 6.0 0.04 0.06 0.05 90 1013.1
20260508154504 50 208 2.0 7.0 0.05 0.06 0.05 89 1013.2
20260508153603 50 232 2.0 7.0 0.04 0.05 0.04 88 1013.2
20260508152703 50 249 1.0 7.0 0.03 0.04 0.03 87 1013.3
20260508151803 50 239 2.0 8.0 0.02 0.03 0.02 87 1013.4
20260508150903 50 235 3.0 10.0 0.01 0.02 0.01 86 1013.5
20260508150004 51 234 3.0 8.0 0.01 0.02 0.01 85 1013.5
20260508145403 51 234 2.0 8.0 0.01 0.02 0.01 85 1013.5
20260508144503 51 231 3.0 10.0 0.00 0.01 0.00 83 1013.7
20260508143603 51 220 4.0 8.0 0.00 0.01 0.00 81 1013.4
20260508142703 52 216 2.0 7.0 0.00 0.01 0.00 80 1012.9
20260508141803 52 236 1.0 5.0 0.00 0.01 0.00 79 1013.1
20260508140903 52 232 1.0 4.0 0.00 0.01 0.00 78 1013.2
20260508140004 52 232 1.0 6.0 0.00 0.01 0.00 77 1013.2
20260508135403 52 224 2.0 7.0 0.00 0.01 0.00 77 1013.1
20260508134503 52 234 1.0 8.0 0.00 0.01 0.00 76 1012.9
20260508133603 52 237 2.0 8.0 0.00 0.01 0.00 76 1013.1
20260508132703 52 235 2.0 8.0 0.00 0.01 0.00 76 1013.2
20260508131803 52 219 2.0 8.0 0.00 0.01 0.00 76 1012.9
20260508130903 51 223 2.0 10.0 0.00 0.01 0.00 76 1013.1
20260508130004 51 218 2.0 8.0 0.00 0.01 0.00 76 1013.2
20260508125403 51 212 2.0 8.0 0.00 0.01 0.00 77 1013.0
20260508124503 51 219 3.0 8.0 0.00 0.01 0.00 77 1013.1
20260508123603 51 221 2.0 8.0 0.00 0.01 0.00 76 1012.9
20260508122724 51 217 2.0 6.0 0.00 0.01 0.00 77 1012.9
20260508121803 50 226 2.0 7.0 0.00 0.01 0.00 77 1012.9
20260508120903 50 219 2.0 7.0 0.00 0.01 0.00 77 1012.9
20260508120004 50 226 2.0 7.0 0.00 0.01 0.00 78 1012.9
20260508115403 50 242 2.0 9.0 0.00 0.01 0.00 77 1012.8
20260508114503 49 240 2.0 9.0 0.00 0.01 0.00 77 1012.8
20260508113624 49 231 2.0 7.0 0.00 0.01 0.00 77 1012.7
20260508112703 49 226 1.0 5.0 0.00 0.01 0.00 77 1012.5
20260508111803 49 223 2.0 8.0 0.00 0.01 0.00 77 1012.5
20260508110903 49 224 4.0 10.0 0.00 0.01 0.00 77 1012.4
20260508110003 48 225 2.0 7.0 0.00 0.01 0.00 77 1012.3
20260508105403 48 225 3.0 7.0 0.00 0.01 0.00 77 1012.2
20260508104503 48 221 3.0 11.0 0.00 0.01 0.00 77 1012.3
20260508103603 48 221 2.0 9.0 0.00 0.01 0.00 77 1012.3
20260508102724 48 220 3.0 11.0 0.00 0.01 0.00 77 1012.2
20260508101803 48 225 3.0 8.0 0.00 0.01 0.00 77 1012.2
20260508100903 48 232 2.0 8.0 0.00 0.01 0.00 76 1012.1
20260508100003 48 226 3.0 8.0 0.00 0.01 0.00 76 1012.1
20260508095424 48 229 3.0 8.0 0.00 0.01 0.00 76 1012.2
20260508094503 48 228 3.0 7.0 0.00 0.01 0.00 76 1012.3
20260508093603 48 223 3.0 8.0 0.00 0.01 0.00 75 1012.4
20260508092703 48 225 3.0 9.0 0.00 0.01 0.00 75 1012.4
20260508091803 48 230 4.0 11.0 0.00 0.01 0.00 75 1012.3
20260508090903 48 225 4.0 10.0 0.00 0.01 0.00 76 1012.4
20260508090004 48 230 3.0 9.0 0.00 0.01 0.00 76 1012.5
20260508085403 48 224 3.0 9.0 0.00 0.01 0.00 76 1012.4
20260508084503 47 224 4.0 12.0 0.00 0.01 0.00 76 1012.4
20260508083603 47 224 4.0 11.0 0.00 0.01 0.00 78 1012.4
20260508082703 47 220 3.0 8.0 0.00 0.01 0.00 79 1012.3
20260508081803 46 224 4.0 9.0 0.00 0.01 0.00 81 1012.3
20260508080924 46 217 3.0 9.0 0.00 0.01 0.00 82 1012.3
20260508080003 46 214 3.0 6.0 0.00 0.01 0.00 83 1012.3
20260508075403 46 212 2.0 6.0 0.00 0.01 0.00 83 1012.3
20260508074503 46 215 3.0 6.0 0.00 0.01 0.00 84 1012.4
20260508073603 46 211 2.0 6.0 0.00 0.01 0.00 85 1012.4
20260508072703 46 206 3.0 7.0 0.00 0.01 0.00 86 1012.5
20260508071824 46 213 2.0 6.0 0.00 0.01 0.00 86 1012.6
20260508070903 46 220 1.0 5.0 0.00 0.01 0.00 87 1012.6
20260508070003 46 213 2.0 6.0 0.00 0.01 0.00 87 1012.7
20260508065403 46 207 1.0 4.0 0.00 0.01 0.00 87 1012.7
20260508064503 46 207 1.0 3.0 0.00 0.01 0.00 87 1012.8
20260508063603 46 199 1.0 4.0 0.00 0.01 0.00 87 1012.8
20260508062703 46 197 1.0 4.0 0.00 0.01 0.00 87 1012.9
20260508061803 46 203 1.0 3.0 0.00 0.01 0.00 87 1013.0
20260508060903 46 194 1.0 3.0 0.00 0.01 0.00 86 1013.0
20260508060003 47 198 1.0 5.0 0.00 0.01 0.00 86 1013.2
20260508055403 47 197 1.0 4.0 0.00 0.01 0.00 86 1013.2
20260508054503 47 194 0.0 3.0 0.00 0.01 0.00 86 1013.3
20260508053603 47 194 1.0 4.0 0.00 0.01 0.00 86 1013.3
20260508052703 47 196 1.0 4.0 0.00 0.01 0.00 86 1013.3
20260508051803 47 194 1.0 4.0 0.00 0.01 0.00 85 1013.4
20260508050903 48 200 1.0 3.0 0.00 0.01 0.00 85 1013.4
20260508050003 48 203 1.0 3.0 0.00 0.01 0.00 84 1013.5
20260508045403 48 205 1.0 2.0 0.00 0.01 0.00 84 1013.6
20260508044524 48 208 0.0 3.0 0.00 0.01 0.00 84 1013.5
20260508043603 48 209 0.0 3.0 0.00 0.01 0.00 84 1013.4
20260508042703 49 0 0.0 0.0 0.00 0.01 0.00 83 1013.5
20260508041803 49 0 0.0 0.0 0.01 0.01 0.00 83 1013.6
20260508040903 49 285 0.0 1.0 0.01 0.01 0.00 82 1013.6
20260508040004 49 285 0.0 1.0 0.01 0.01 0.00 81 1013.7
20260508035403 49 307 1.0 3.0 0.01 0.01 0.01 81 1013.7
20260508034503 49 277 2.0 8.0 0.01 0.01 0.01 80 1014.0
20260508033603 49 255 1.0 8.0 0.01 0.01 0.01 79 1014.1
20260508032703 50 281 2.0 7.0 0.01 0.01 0.01 78 1014.2
20260508031803 50 224 3.0 7.0 0.00 0.00 0.00 76 1013.8
20260508030903 50 218 2.0 7.0 0.00 0.00 0.00 75 1013.2
20260508030004 51 212 5.0 10.0 0.00 0.00 0.00 72 1013.2
20260508025403 51 210 4.0 9.0 0.00 0.00 0.00 71 1013.2
20260508024503 50 204 2.0 6.0 0.00 0.00 0.00 71 1013.1
20260508023624 50 201 2.0 8.0 0.00 0.00 0.00 71 1013.1
20260508022703 50 204 2.0 7.0 0.00 0.00 0.00 70 1013.1
20260508021803 51 201 1.0 5.0 0.00 0.00 0.00 70 1013.0
20260508020924 51 210 3.0 8.0 0.00 0.00 0.00 69 1013.0
20260508020003 51 210 2.0 6.0 0.00 0.00 0.00 68 1013.1
20260508015403 51 211 2.0 7.0 0.00 0.00 0.00 67 1013.1
20260508014504 51 205 2.0 6.0 0.00 0.00 0.00 66 1013.1
20260508013603 52 211 2.0 5.0 0.00 0.00 0.00 65 1013.1
20260508012724 52 199 2.0 8.0 0.00 0.00 0.00 64 1013.1
20260508011824 52 204 1.0 7.0 0.00 0.00 0.00 63 1013.0
20260508010903 52 204 1.0 4.0 0.00 0.00 0.00 63 1013.1
20260508010003 52 215 2.0 6.0 0.00 0.00 0.00 61 1013.1
20260508005403 52 207 1.0 4.0 0.00 0.00 0.00 62 1013.2
20260508004503 52 217 1.0 5.0 0.00 0.00 0.00 62 1013.2
20260508003603 52 221 1.0 4.0 0.00 0.00 0.00 61 1013.1
20260508002703 52 241 1.0 5.0 0.00 0.00 0.00 60 1013.1
20260508001803 53 283 0.0 3.0 0.00 0.00 0.00 59 1013.0
20260508000903 53 260 0.0 3.0 0.00 0.00 0.00 58 1013.1
20260508000024 53 281 0.0 3.0 0.00 0.00 0.00 58 1013.1
20260507235403 53 292 1.0 3.0 0.00 0.00 0.00 57 1013.0
20260507234503 53 271 1.0 8.0 0.00 0.00 0.00 56 1013.1
20260507233603 53 280 2.0 8.0 0.00 0.00 0.00 56 1013.1
20260507232726 53 307 1.0 5.0 0.00 0.00 0.00 57 1013.2
20260507231803 53 274 2.0 8.0 0.00 0.00 0.00 56 1013.6
20260507230903 53 240 3.0 9.0 0.00 0.00 0.00 56 1013.8
20260507230003 54 268 3.0 13.0 0.00 0.00 0.00 55 1014.0
20260507225403 54 261 4.0 12.0 0.00 0.00 0.00 55 1014.0
20260507224504 54 254 4.0 14.0 0.00 0.00 0.00 53 1014.0
20260507223603 54 284 5.0 12.0 0.00 0.00 0.00 52 1014.0
20260507222724 55 261 3.0 10.0 0.00 0.00 0.00 49 1014.0
20260507221803 55 272 4.0 11.0 0.00 0.00 0.00 47 1013.8
20260507220903 56 278 6.0 16.0 0.00 0.00 0.00 47 1013.8
20260507220003 58 235 3.0 9.0 0.00 0.00 0.00 45 1013.4
20260507215424 58 257 3.0 9.0 0.00 0.00 0.00 42 1013.4
20260507214503 59 252 4.0 13.0 0.00 0.00 0.00 40 1013.1
20260507213603 58 285 2.0 9.0 0.00 0.00 0.00 41 1012.8
20260507212724 58 278 3.0 9.0 0.00 0.00 0.00 40 1012.8
20260507211804 58 273 4.0 11.0 0.00 0.00 0.00 39 1012.9
20260507210924 60 272 3.0 8.0 0.00 0.00 0.00 39 1013.0
20260507210024 60 253 4.0 9.0 0.00 0.00 0.00 39 1012.9